[[{"header":{"parameterUnit":"m.s-1","parameterCategory":1,"la1":30.2991,"la2":30.254,"lo1":-89.0895,"lo2":-89.0444,"dy":0.0017,"dx":0.0017,"nx":28,"ny":28,"refTime":"2024-06-18T03:00:00:Z","depth":0,"parameterNumber":2,"parameterNumberName":"U-component_of_WINDS"},"data":[0,0,0,0,0,0,0,0,0,0,0,0,0,0,0,0,0,0,0,0,0,0,0,0,0,0,0,0,0,0,0,0,0,0,0,0,0,0,0,0,0,0,0,0,0,0,0,0,0,0,0,0,0,0,0,0,0,0,-8.7043,-8.7043,0,-8.7062,-8.7062,-8.7062,-8.6788,-8.6781,-8.6773,-8.6766,-8.6788,-8.6796,-8.6803,0,0,0,0,0,0,0,0,0,0,0,0,0,-8.6773,-8.6779,-8.7043,-8.7043,-8.7044,-8.7062,-8.7062,-8.7062,-8.6789,-8.678,-8.6771,-8.6763,-8.6786,-8.6795,-8.6804,0,0,0,0,0,0,0,0,0,0,0,0,0,-8.6851,-8.6781,-8.7043,-8.691,-8.6898,-8.7062,-8.7062,-8.7062,-8.6791,-8.678,-8.6769,-8.6758,-8.6783,-8.6794,-8.6805,-8.7099,0,0,-8.684,-8.6845,0,0,0,0,0,0,0,0,-8.6847,-8.6861,-8.6929,-8.6919,-8.6906,-8.6911,-8.6974,-8.7075,-8.6794,-8.6832,-8.6766,-8.6753,-8.6839,-8.6844,-8.6873,-8.71,-8.7101,-8.6841,-8.6848,-8.6852,-8.6856,0,0,0,0,0,0,0,-8.6842,-8.6859,-8.705,-8.693,-8.6916,-8.6849,-8.6848,-8.6992,-8.6898,-8.6828,-8.6808,-8.6814,-8.683,-8.6862,-8.6871,-8.7101,-8.684,-8.685,-8.6857,-8.6862,-8.7566,-8.7577,0,0,0,0,0,0,-8.6854,-8.6856,-8.705,-8.7051,-8.6848,-8.6863,-8.6862,-8.6921,-8.6895,-8.6881,-8.6823,-8.6801,-8.6849,-8.6858,-8.6871,-8.7208,-8.6852,-8.6863,-8.6869,-8.7554,-8.7568,-8.7581,0,0,0,0,0,0,-8.6849,-8.6874,-8.7049,-8.6948,-8.6965,-8.688,-8.6948,-8.6927,-8.6959,-8.6892,-8.6874,-8.6873,-8.684,-8.6855,-8.7043,-8.7205,-8.6868,-8.6878,-8.754,-8.7558,-8.7575,-8.7889,0,0,0,0,0,0,-8.6843,-8.6874,-8.6984,-8.6953,-8.6972,-8.7221,-8.6958,-8.6936,-8.6979,-8.695,-8.6934,-8.6921,-8.6833,-8.7027,-8.7054,-8.7215,-8.6887,-8.7525,-8.7548,-8.7569,-8.7864,-8.7916,-8.796,0,0,0,0,0,-8.6834,-8.7074,-8.6991,-8.7016,-8.7108,-8.7231,-8.7242,-8.7134,-8.6993,-8.7103,-8.7059,-8.6921,-8.7185,-8.7049,-8.7077,-8.7244,-8.7514,-8.7541,-8.7567,-8.7842,-8.7906,-8.7959,0,0,0,0,0,0,-8.7128,-8.7067,-8.6975,-8.7211,-8.7228,-8.7184,-8.7319,-8.7205,-8.7263,-8.7234,-8.7099,-8.7098,-8.7307,-8.7295,-8.7145,-8.7524,-8.7324,-8.7358,-8.7524,-8.7583,-8.7631,-8.7627,-8.6897,0,0,0,0,0,-8.722,-8.7325,-8.7266,-8.7481,-8.7494,-8.7407,-8.7456,-8.7372,-8.7384,-8.739,-8.736,-8.7379,-8.7464,-8.7524,-8.76,-8.7863,-8.7853,-8.7991,-8.8039,-8.8079,-8.8108,-8.8242,-8.8301,-8.7669,-8.7669,-8.7668,0,0,-8.7412,-8.7391,-8.7466,-8.7539,-8.7542,-8.7653,-8.7414,-8.7542,-8.7622,-8.741,-8.7583,-8.7564,-8.7575,-8.78,-8.7898,-8.7796,-8.8281,-8.8113,-8.8145,-8.8153,-8.8276,-8.8335,-8.8389,-8.7687,-8.7684,-8.7681,0,0,-8.7815,-8.7813,-8.7988,-8.7996,-8.8003,-8.7944,-8.7987,-8.796,-8.7938,-8.811,-8.7952,-8.8047,-8.82,-8.8212,-8.8239,-8.8649,-8.8523,-8.8679,-8.8927,-8.906,-8.9109,-8.9153,-8.9294,-8.9347,-8.8709,-8.871,-8.871,0,-8.8052,-8.8212,-8.8094,-8.8231,-8.8267,-8.8079,-8.8255,-8.8269,-8.8303,-8.8331,-8.8217,-8.8402,-8.8397,-8.8621,-8.8721,-8.8751,-8.8793,-8.8677,-8.9112,-8.9154,-8.9193,-8.9326,-8.938,-8.8728,-8.8726,-8.8724,-8.8722,0,-8.85,-8.8614,-8.8756,-8.8789,-8.8842,-8.8999,-8.8904,-8.8972,-8.8884,-8.8837,-8.9014,-8.9001,-8.9069,-8.9118,-8.9034,-8.933,-8.9265,-8.9135,-8.893,-8.9273,-8.9396,-8.9447,-8.8754,-8.8748,-8.8742,-8.8738,0,0,-8.9086,-8.9053,-8.9106,-8.9117,-8.9112,-8.9198,-8.9347,-8.9412,-8.947,-8.9501,-8.962,-8.9754,-8.9631,-8.9662,-8.9579,-8.9696,-9.0016,-8.9549,-8.9547,-8.9632,-9.0336,-9.043,-9.0492,-8.9934,-8.9944,-8.9951,-9.0333,0,-8.9475,-8.9723,-8.9621,-8.9879,-8.9981,-8.9805,-8.9934,-8.9945,-8.9906,-8.9986,-8.9943,-9.0037,-8.9871,-8.9888,-8.9996,-8.9954,-9.0154,-8.9926,-9.0041,-9.0047,-9.0038,-9.0556,-9.0657,-9.1018,-9.0381,-9.0389,-9.0395,0,-8.996,-9.0007,-9.0275,-9.0249,-9.0287,-9.0405,-9.0455,-9.0536,-9.0545,-9.0507,-9.0543,-9.0433,-9.0576,-9.0377,-9.0571,-9.0418,-9.046,-9.0447,-9.0458,-9.046,-9.0238,-9.0568,-9.1131,-9.1183,-9.047,-9.0464,-9.0459,0,-9.0353,-9.0485,-9.066,-9.0677,-9.0653,-9.0739,-9.0733,-9.0731,-9.0776,-9.0822,-9.0849,-9.0912,-9.0946,-9.0997,-9.0907,-9.0771,-9.1113,-9.0907,-9.1084,-9.1086,-9.1159,-9.1155,-9.1732,-9.1197,-9.1196,-9.1195,-9.1194,0,-9.0794,-9.0964,-9.0836,-9.0944,-9.1128,-9.1011,-9.1197,-9.1172,-9.1172,-9.1271,-9.1126,-9.1223,-9.1101,-9.1186,-9.1118,-9.1287,-9.1305,-9.1277,-9.1256,-9.1287,-9.129,-9.1308,-9.1279,-9.121,-9.1206,-9.1204,-9.1201,0,-9.1262,-9.1185,-9.1363,-9.1326,-9.1321,-9.1458,-9.1425,-9.1523,-9.1474,-9.1602,-9.1625,-9.1549,-9.1641,-9.1558,-9.1649,-9.1602,-9.1825,-9.1771,-9.1822,-9.1804,-9.1983,-9.1966,-9.2588,-9.2661,-9.2086,-9.2092,-9.2096,0,-9.1545,-9.1671,-9.1647,-9.1702,-9.1704,-9.1797,-9.1841,-9.1732,-9.1785,-9.1804,-9.1899,-9.198,-9.2037,-9.2193,-9.2146,-9.2213,-9.2156,-9.237,-9.2165,-9.2191,-9.2152,-9.2144,-9.2154,-9.2409,-9.2416,-9.2422,-9.2426,0,-9.2055,-9.201,-9.2079,-9.2136,-9.2193,-9.2233,-9.2261,-9.2315,-9.2203,-9.227,-9.2361,-9.2406,-9.2497,-9.2577,-9.2629,-9.2623,-9.2506,-9.2492,-9.2535,-9.2565,-9.2587,-9.2572,-9.1928,-9.2477,-9.2472,-9.2468,-9.2465,-9.2463,-9.2434,-9.2536,-9.2534,-9.2616,-9.2626,-9.2656,-9.2744,-9.2706,-9.2781,-9.2844,-9.2776,-9.2888,-9.2892,-9.295,-9.2958,-9.3044,-9.2954,-9.3019,-9.3034,-9.305,-9.3073,-9.2579,-9.3054,-9.3052,-9.3051,-9.3049,-9.3048,0,-9.293,-9.292,-9.2997,-9.304,-9.3105,-9.299,-9.3016,-9.3077,-9.3176,-9.319,-9.3249,-9.3354,-9.3432,-9.3392,-9.3458,-9.3534,-9.3482,-9.3555,-9.3545,-9.3545,-9.3152,-9.3105,-9.3596,-9.3596,-9.3595,-9.3595,-9.3595,-9.3595,-9.3196,-9.336,-9.3316,-9.3484,-9.3473,-9.3579,-9.3603,-9.363,-9.364,-9.3763,-9.3826,-9.3799,-9.379,-9.3855,-9.3921,-9.3907,-9.3936,-9.4028,-9.3995,-9.3627,-9.3573,-9.3521,-9.3476,-9.4037,-9.4037,-9.4378,-9.4382,-9.4384]},{"header":{"parameterUnit":"m.s-1","parameterCategory":1,"la1":30.2991,"la2":30.254,"lo1":-89.0895,"lo2":-89.0444,"dy":0.0017,"dx":0.0017,"nx":28,"ny":28,"refTime":"2024-06-18T03:00:00:Z","depth":0,"parameterNumber":3,"parameterNumberName":"V-component_of_WINDS"},"data":[0,0,0,0,0,0,0,0,0,0,0,0,0,0,0,0,0,0,0,0,0,0,0,0,0,0,0,0,0,0,0,0,0,0,0,0,0,0,0,0,0,0,0,0,0,0,0,0,0,0,0,0,0,0,0,0,0,0,0.847,0.847,0,0.8457,0.8457,0.8457,0.8363,0.8361,0.8358,0.8356,0.8347,0.8348,0.835,0,0,0,0,0,0,0,0,0,0,0,0,0,0.8418,0.8419,0.847,0.847,0.847,0.8458,0.8457,0.8457,0.8363,0.8361,0.8358,0.8355,0.8346,0.8348,0.835,0,0,0,0,0,0,0,0,0,0,0,0,0,0.8427,0.842,0.847,0.8422,0.8417,0.8458,0.8457,0.8457,0.8364,0.836,0.8357,0.8354,0.8345,0.8348,0.8351,0.8438,0,0,0.8359,0.8361,0,0,0,0,0,0,0,0,0.8426,0.8429,0.8429,0.8425,0.842,0.8408,0.8435,0.8451,0.8365,0.8384,0.8356,0.8352,0.837,0.8371,0.8376,0.8438,0.8437,0.836,0.8361,0.8363,0.8363,0,0,0,0,0,0,0,0.8426,0.8429,0.8465,0.8429,0.8424,0.8402,0.8399,0.8438,0.8397,0.8382,0.8375,0.8375,0.8367,0.8374,0.8375,0.8437,0.836,0.8362,0.8364,0.8365,0.8571,0.8575,0,0,0,0,0,0,0.8431,0.8429,0.8466,0.8465,0.8415,0.8406,0.8403,0.8416,0.8396,0.839,0.8378,0.8371,0.837,0.8372,0.8374,0.8476,0.8363,0.8365,0.8367,0.8568,0.8572,0.8576,0,0,0,0,0,0,0.8431,0.8436,0.8466,0.8445,0.8447,0.841,0.8426,0.8417,0.8423,0.8393,0.8386,0.8392,0.8368,0.837,0.8423,0.8474,0.8367,0.8369,0.8563,0.8569,0.8574,0.868,0,0,0,0,0,0,0.843,0.8436,0.8468,0.8446,0.8449,0.8514,0.8429,0.8419,0.8428,0.8419,0.8404,0.8398,0.8365,0.8419,0.8426,0.8476,0.8371,0.8558,0.8566,0.8572,0.8672,0.8688,0.8703,0,0,0,0,0,0.8428,0.8498,0.847,0.8475,0.8487,0.8517,0.8519,0.8478,0.8433,0.8465,0.8446,0.8399,0.8468,0.8425,0.8432,0.8484,0.8555,0.8564,0.8572,0.8665,0.8685,0.8702,0,0,0,0,0,0,0.8527,0.8494,0.8462,0.8527,0.8526,0.8501,0.854,0.8501,0.8513,0.8503,0.8453,0.8451,0.8512,0.8503,0.8456,0.8569,0.8503,0.8514,0.8572,0.8591,0.8606,0.8607,0.8374,0,0,0,0,0,0.8556,0.8582,0.8553,0.8613,0.8614,0.8578,0.8589,0.8558,0.8555,0.8554,0.8538,0.8538,0.8559,0.8575,0.8593,0.867,0.8666,0.871,0.8725,0.8738,0.8748,0.8789,0.8808,0.8604,0.8604,0.8604,0,0,0.8617,0.8603,0.8622,0.8633,0.8628,0.8657,0.8578,0.8611,0.8633,0.8559,0.8608,0.8597,0.8593,0.8659,0.8687,0.8654,0.8803,0.8749,0.8759,0.8762,0.88,0.8819,0.8837,0.861,0.8609,0.8608,0,0,0.8743,0.8734,0.8784,0.8781,0.8774,0.875,0.8762,0.8744,0.8734,0.8781,0.8727,0.8753,0.8791,0.8791,0.8796,0.8924,0.8882,0.8932,0.9013,0.9054,0.907,0.9085,0.9131,0.9148,0.8941,0.8941,0.8942,0,0.882,0.886,0.8815,0.8853,0.886,0.8794,0.8845,0.8844,0.8845,0.8852,0.8814,0.8861,0.8854,0.892,0.8951,0.8957,0.8971,0.8933,0.9072,0.9085,0.9098,0.9142,0.9159,0.8948,0.8947,0.8946,0.8946,0,0.8956,0.8985,0.9027,0.9028,0.9039,0.9084,0.9047,0.9064,0.9033,0.9014,0.9064,0.9054,0.9069,0.9082,0.9052,0.9144,0.9124,0.908,0.9013,0.9124,0.9165,0.9181,0.8956,0.8954,0.8952,0.8951,0,0,0.9143,0.9119,0.9135,0.9135,0.9124,0.9146,0.9189,0.9203,0.922,0.9223,0.9258,0.9293,0.9252,0.9258,0.9228,0.9264,0.9368,0.9215,0.9215,0.9245,0.947,0.9503,0.9523,0.934,0.9343,0.9345,0.947,0,0.9264,0.9333,0.9295,0.9371,0.9398,0.9337,0.9374,0.9372,0.9355,0.9377,0.9359,0.9385,0.9329,0.9332,0.9365,0.9348,0.9412,0.9338,0.9373,0.9375,0.9376,0.9544,0.9579,0.9698,0.9486,0.9489,0.949,0,0.9414,0.9423,0.9502,0.9486,0.9497,0.953,0.9541,0.9563,0.956,0.9545,0.9553,0.9515,0.9557,0.9491,0.955,0.95,0.9513,0.9507,0.951,0.9512,0.944,0.9551,0.9735,0.9753,0.9515,0.9513,0.9511,0,0.9544,0.9576,0.9627,0.9629,0.9612,0.9638,0.9632,0.9626,0.9638,0.9648,0.9655,0.9671,0.9679,0.9693,0.966,0.9616,0.9724,0.9655,0.9714,0.9715,0.974,0.9738,0.9928,0.9747,0.9747,0.9747,0.9746,0,0.9683,0.9734,0.9685,0.9716,0.9772,0.9728,0.9784,0.9773,0.9768,0.9797,0.9746,0.9775,0.973,0.9755,0.973,0.9783,0.9787,0.9778,0.977,0.9782,0.9784,0.979,0.9781,0.9752,0.975,0.975,0.9749,0,0.9837,0.9806,0.9858,0.9838,0.9834,0.9876,0.986,0.9889,0.9869,0.9907,0.9914,0.9884,0.9911,0.9879,0.9904,0.9887,0.9959,0.994,0.996,0.9955,1.0015,1.001,1.0216,1.0241,1.0044,1.0046,1.0048,0,0.9928,0.9965,0.995,0.9965,0.9963,0.9989,1.0,0.9959,0.9974,0.9975,1.0005,1.0027,1.0043,1.0089,1.007,1.0089,1.007,1.0141,1.0073,1.0084,1.0072,1.007,1.0075,1.0155,1.0157,1.0159,1.0161,0,1.0093,1.0076,1.0094,1.0108,1.0123,1.0132,1.0138,1.0154,1.0111,1.0131,1.0157,1.017,1.0195,1.0219,1.0233,1.0228,1.0189,1.0183,1.0197,1.021,1.022,1.0216,0.9998,1.0178,1.0176,1.0175,1.0174,1.0173,1.0218,1.0249,1.0244,1.0266,1.0266,1.0272,1.0299,1.0283,1.0304,1.0321,1.0296,1.033,1.0328,1.0343,1.0343,1.037,1.034,1.0361,1.0367,1.0373,1.0382,1.0216,1.0373,1.0372,1.0372,1.0371,1.0371,0,1.0382,1.0375,1.0396,1.0405,1.0424,1.0384,1.0388,1.0406,1.0436,1.0437,1.0454,1.0486,1.0509,1.0493,1.0512,1.0537,1.052,1.0544,1.0542,1.0542,1.0407,1.0393,1.0558,1.0558,1.0558,1.0558,1.0558,1.0558,1.0469,1.0519,1.0502,1.0553,1.0546,1.0578,1.0584,1.0591,1.0591,1.0629,1.0648,1.0636,1.0631,1.065,1.0671,1.0665,1.0675,1.0706,1.0695,1.057,1.0551,1.0534,1.052,1.0709,1.0709,1.0827,1.0828,1.0829]}]]